Location: Berg
(48.4333°N, 13.9167°E)
Time: 02:26:14
(UTC+00:00)

DMSP B5D2-2 - Pass Details

Date: 18 September 2020
Orbit: 790 x 806 km, 98.3° (Epoch: 24 October)

Event Time Altitude Azimuth Distance (km) Brightness Sun altitude
Rises 18:38:44 0° 17° (NNE) 3,333 7.4 -15.2°
Reaches altitude 10° 18:41:08 10° 22° (NNE) 2,398 6.6 -15.6°
Maximum altitude 18:46:21 55° 100° (E) 963 4.1 -16.4°
Drops below altitude 10° 18:51:31 10° 178° (S) 2,379 6.3 -17.2°
Sets 18:53:53 0° 183° (S) 3,304 7.1 -17.6°
